Wind_Speed
1 2 5 7 9 11 13 15 16 16 16 17 18 18 16 16 17 17 16 14 14 14
2 4 7 9 11 12 14 15 17 18 18 19 20 19 18 18 18 18 16 15 13 13
4 6 7 8 9 11 12 14 16 18 20 21 21 19 19 19 18 17 15 12 12 13
4 6 7 8 8 10 13 17 19 21 21 21 21 19 20 19 17 17 14 11 11 13
6 6 7 8 10 13 16 18 19 19 18 19 18 17 15 16 14 10 12 10 11 15
8 7 8 10 12 14 17 18 17 16 16 16 15 13 12 11 7 7 10 10 13 18
9 8 10 12 13 15 17 16 15 15 14 11 11 10 10 5 6 9 10 12 16 18
9 10 12 13 14 15 16 15 14 10 9 8 4 4 5 6 7 10 13 15 16 16
12 13 14 14 15 15 17 16 13 12 10 8 7 8 5 5 9 12 14 14 16 16
12 14 15 15 15 16 17 16 15 14 12 10 7 7 6 8 10 12 12 13 15 16
12 14 14 14 15 17 17 15 15 13 11 9 6 7 7 9 9 11 12 13 15 15
12 14 14 14 16 18 16 17 15 10 9 8 6 8 7 8 10 11 13 14 14 15
13 13 14 16 17 16 16 15 10 6 6 7 7 9 8 8 9 11 13 15 14 14
12 13 14 15 14 14 13 9 7 7 7 7 9 8 10 8 7 10 13 15 15 15
Wind_Direction
133 324 322 332 325 312 304 303 303 299 291 287 286 283 281 284 286 292 288 287 290 295
273 319 320 315 308 302 299 300 299 296 291 289 290 284 283 286 294 296 288 290 288 292
297 310 314 312 313 314 311 312 310 305 299 294 292 287 285 290 296 291 288 288 294 299
316 328 321 320 323 323 319 316 312 307 301 296 294 290 290 292 299 290 275 279 285 294
322 320 321 323 323 320 318 316 313 308 304 299 296 295 295 298 290 265 273 280 286 296
315 314 316 315 314 316 316 314 311 308 305 301 297 294 290 283 256 262 278 286 295 301
311 305 304 307 306 309 312 309 309 307 303 298 293 285 274 238 253 274 284 294 300 301
300 296 297 295 298 306 311 310 309 310 307 299 273 271 273 274 283 292 300 302 302 302
296 292 287 291 297 304 309 305 299 296 295 278 278 268 261 273 301 302 303 306 307 308
299 292 289 291 295 300 306 302 295 285 282 273 269 250 261 293 306 304 307 309 312 313
304 299 291 290 292 303 306 298 294 284 274 265 232 244 276 308 308 305 309 313 313 313
306 300 297 294 299 303 303 297 298 268 258 243 239 260 288 313 306 308 313 314 313 315
305 302 299 298 298 301 300 297 290 274 246 244 255 271 284 300 301 306 313 316 315 320
304 305 302 301 297 300 305 292 276 258 247 253 269 270 277 282 289 301 312 312 317 318
Height
861 860 860 859 858 857 856 855 854 853 851 850 848 846 844 842 841 839 838 836 836 834
859 858 858 857 856 855 854 853 851 850 847 845 843 841 839 837 835 834 833 832 832 831
857 856 855 855 854 853 852 850 848 845 842 840 838 836 834 833 831 830 829 829 828 828
854 853 853 852 851 850 849 846 844 841 838 835 833 831 830 828 827 827 826 826 826 825
852 851 850 849 848 847 845 843 840 837 834 831 829 828 827 825 825 825 825 823 823 822
849 848 847 846 845 844 842 839 836 833 830 828 827 825 825 824 823 823 823 822 821 819
846 845 844 843 842 841 839 836 833 830 828 826 824 823 821 822 821 821 820 819 818 817
843 842 841 840 839 838 835 833 830 827 826 824 822 822 821 820 819 819 818 817 815 813
841 840 838 837 835 834 831 828 826 824 823 822 820 819 819 819 818 817 815 814 812 810
838 836 834 833 831 829 826 824 822 820 819 818 817 817 817 817 816 815 813 811 809 806
835 833 830 829 827 824 822 821 819 817 816 815 815 815 815 814 813 812 810 809 806 804
832 829 827 824 823 820 818 815 813 813 812 812 812 812 812 812 811 809 808 805 803 801
828 825 823 821 819 817 815 812 810 809 810 810 811 810 810 809 809 807 805 802 799 797
824 822 821 818 816 813 810 810 809 808 808 808 808 808 806 806 806 805 803 800 796 794